| time (UTC) | temp C | wind direction | speed KPH | gust KPH | rain 1hr cm | rain 24hr cm | rain mn cm | humidity % | barometer mb |
| 20260506231553 | 28 | 360 | 0.0 | 8.0 | 0.00 | 0.00 | 0.00 | 14 | 1018.5 |
| 20260506230100 | 28 | 360 | 0.0 | 1.6 | 0.00 | 0.00 | 0.00 | 14 | 1018.8 |
| 20260506224550 | 28 | 360 | 0.0 | 1.6 | 0.00 | 0.00 | 0.00 | 14 | 1018.9 |
| 20260506223048 | 28 | 360 | 0.0 | 1.6 | 0.00 | 0.00 | 0.00 | 14 | 1019.0 |
| 20260506221549 | 28 | 360 | 0.0 | 1.6 | 0.00 | 0.00 | 0.00 | 15 | 1019.2 |
| 20260506220051 | 28 | 360 | 0.0 | 3.2 | 0.00 | 0.00 | 0.00 | 14 | 1019.4 |
| 20260506214546 | 28 | 360 | 0.0 | 4.8 | 0.00 | 0.00 | 0.00 | 15 | 1019.9 |
| 20260506213044 | 28 | 360 | 0.0 | 4.8 | 0.00 | 0.00 | 0.00 | 15 | 1019.9 |
| 20260506211543 | 28 | 360 | 0.0 | 4.8 | 0.00 | 0.00 | 0.00 | 15 | 1020.0 |
| 20260506210048 | 27 | 360 | 0.0 | 4.8 | 0.00 | 0.00 | 0.00 | 16 | 1020.0 |
| 20260506204541 | 27 | 360 | 0.0 | 1.6 | 0.00 | 0.00 | 0.00 | 16 | 1020.0 |
| 20260506203047 | 27 | 360 | 0.0 | 6.4 | 0.00 | 0.00 | 0.00 | 17 | 1020.2 |
| 20260506201545 | 27 | 360 | 0.0 | 1.6 | 0.00 | 0.00 | 0.00 | 18 | 1020.4 |
| 20260506200033 | 26 | 360 | 0.0 | 3.2 | 0.00 | 0.00 | 0.00 | 19 | 1020.7 |
| 20260506194539 | 26 | 360 | 0.0 | 3.2 | 0.00 | 0.00 | 0.00 | 20 | 1021.0 |
| 20260506193030 | 25 | 360 | 0.0 | 1.6 | 0.00 | 0.00 | 0.00 | 21 | 1021.3 |
| 20260506191525 | 24 | 360 | 0.0 | 1.6 | 0.00 | 0.00 | 0.00 | 23 | 1021.6 |
| 20260506190121 | 24 | 360 | 0.0 | 8.0 | 0.00 | 0.00 | 0.00 | 23 | 1021.6 |
| 20260506184519 | 23 | 360 | 0.0 | 1.6 | 0.00 | 0.00 | 0.00 | 24 | 1021.9 |
| 20260506183015 | 23 | 360 | 0.0 | 0.0 | 0.00 | 0.00 | 0.00 | 24 | 1022.0 |
| 20260506181512 | 22 | 360 | 0.0 | 1.6 | 0.00 | 0.00 | 0.00 | 25 | 1022.1 |
| 20260506180008 | 22 | 360 | 0.0 | 1.6 | 0.00 | 0.00 | 0.00 | 26 | 1022.5 |
| 20260506174505 | 22 | 360 | 0.0 | 1.6 | 0.00 | 0.00 | 0.00 | 26 | 1022.6 |
| 20260506173130 | 21 | 360 | 0.0 | 0.0 | 0.00 | 0.00 | 0.00 | 27 | 1022.5 |
| 20260506171559 | 20 | 360 | 0.0 | 0.0 | 0.00 | 0.00 | 0.00 | 27 | 1022.5 |
| 20260506170053 | 20 | 360 | 0.0 | 1.6 | 0.00 | 0.00 | 0.00 | 28 | 1022.6 |
| 20260506164549 | 19 | 360 | 0.0 | 0.0 | 0.00 | 0.00 | 0.00 | 29 | 1022.6 |
| 20260506163059 | 18 | 360 | 0.0 | 0.0 | 0.00 | 0.00 | 0.00 | 32 | 1022.6 |
| 20260506161542 | 18 | 360 | 0.0 | 0.0 | 0.00 | 0.00 | 0.00 | 34 | 1022.6 |
| 20260506160035 | 17 | 360 | 0.0 | 0.0 | 0.00 | 0.00 | 0.00 | 37 | 1022.5 |
| 20260506154537 | 16 | 360 | 0.0 | 0.0 | 0.00 | 0.00 | 0.00 | 40 | 1022.5 |
| 20260506153025 | 15 | 360 | 0.0 | 0.0 | 0.00 | 0.00 | 0.00 | 42 | 1022.5 |
| 20260506151522 | 15 | 360 | 0.0 | 0.0 | 0.00 | 0.00 | 0.00 | 44 | 1022.6 |
| 20260506150017 | 14 | 360 | 0.0 | 0.0 | 0.00 | 0.00 | 0.00 | 46 | 1022.5 |
| 20260506144513 | 13 | 360 | 0.0 | 0.0 | 0.00 | 0.00 | 0.00 | 48 | 1022.5 |
| 20260506143015 | 13 | 360 | 0.0 | 0.0 | 0.00 | 0.00 | 0.00 | 50 | 1022.4 |
| 20260506141505 | 12 | 360 | 0.0 | 0.0 | 0.00 | 0.00 | 0.00 | 53 | 1022.2 |
| 20260506140001 | 11 | 360 | 0.0 | 0.0 | 0.00 | 0.00 | 0.00 | 54 | 1022.0 |
| 20260506134558 | 11 | 360 | 0.0 | 0.0 | 0.00 | 0.00 | 0.00 | 56 | 1021.9 |
| 20260506133058 | 10 | 360 | 0.0 | 0.0 | 0.00 | 0.00 | 0.00 | 58 | 1021.5 |
| 20260506131549 | 10 | 360 | 0.0 | 0.0 | 0.00 | 0.00 | 0.00 | 58 | 1021.3 |
| 20260506130046 | 10 | 360 | 0.0 | 0.0 | 0.00 | 0.00 | 0.00 | 57 | 1021.1 |
| 20260506124542 | 10 | 360 | 0.0 | 0.0 | 0.00 | 0.00 | 0.00 | 57 | 1020.9 |
| 20260506123041 | 10 | 360 | 0.0 | 0.0 | 0.00 | 0.00 | 0.00 | 56 | 1020.6 |
| 20260506121539 | 11 | 360 | 0.0 | 0.0 | 0.00 | 0.00 | 0.00 | 55 | 1020.6 |
| 20260506120037 | 11 | 360 | 0.0 | 0.0 | 0.00 | 0.00 | 0.00 | 55 | 1020.6 |
| 20260506114537 | 11 | 360 | 0.0 | 0.0 | 0.00 | 0.00 | 0.00 | 55 | 1020.5 |
| 20260506113035 | 11 | 360 | 0.0 | 0.0 | 0.00 | 0.00 | 0.00 | 56 | 1020.3 |
| 20260506111541 | 12 | 360 | 0.0 | 0.0 | 0.00 | 0.00 | 0.00 | 54 | 1020.5 |
| 20260506110034 | 12 | 360 | 0.0 | 0.0 | 0.00 | 0.00 | 0.00 | 52 | 1020.3 |
| 20260506104536 | 12 | 360 | 0.0 | 0.0 | 0.00 | 0.00 | 0.00 | 54 | 1020.2 |
| 20260506103033 | 11 | 360 | 0.0 | 0.0 | 0.00 | 0.00 | 0.00 | 55 | 1020.1 |
| 20260506101530 | 11 | 360 | 0.0 | 0.0 | 0.00 | 0.00 | 0.00 | 58 | 1020.0 |
| 20260506100029 | 11 | 360 | 0.0 | 0.0 | 0.00 | 0.00 | 0.00 | 57 | 1020.2 |
| 20260506094529 | 11 | 360 | 0.0 | 0.0 | 0.00 | 0.00 | 0.00 | 57 | 1020.0 |
| 20260506093041 | 11 | 360 | 0.0 | 0.0 | 0.00 | 0.00 | 0.00 | 56 | 1019.9 |
| 20260506091525 | 12 | 360 | 0.0 | 14.5 | 0.00 | 0.00 | 0.00 | 56 | 1019.6 |
| 20260506090024 | 11 | 360 | 0.0 | 0.0 | 0.00 | 0.00 | 0.00 | 56 | 1019.7 |
| 20260506084523 | 12 | 360 | 0.0 | 0.0 | 0.00 | 0.00 | 0.00 | 56 | 1019.8 |
| 20260506083021 | 12 | 360 | 0.0 | 0.0 | 0.00 | 0.00 | 0.00 | 55 | 1019.8 |
| 20260506081520 | 12 | 360 | 0.0 | 0.0 | 0.00 | 0.00 | 0.00 | 55 | 1019.7 |
| 20260506073016 | 12 | 360 | 0.0 | 0.0 | 0.00 | 0.00 | 0.00 | 52 | 1019.5 |
| 20260506071514 | 12 | 360 | 0.0 | 0.0 | 0.00 | 0.00 | 0.00 | 53 | 1019.3 |
| 20260506061508 | 12 | 360 | 0.0 | 0.0 | 0.00 | 0.00 | 0.00 | 54 | 1018.6 |
| 20260506044616 | 13 | 360 | 0.0 | 0.0 | 0.00 | 0.00 | 0.00 | 50 | 1017.8 |
| 20260506043059 | 14 | 360 | 0.0 | 0.0 | 0.00 | 0.00 | 0.00 | 49 | 1017.5 |
| 20260506041608 | 14 | 360 | 0.0 | 0.0 | 0.00 | 0.00 | 0.00 | 47 | 1017.3 |
| 20260506040101 | 15 | 360 | 0.0 | 0.0 | 0.00 | 0.00 | 0.00 | 46 | 1017.1 |
| 20260506034556 | 16 | 360 | 0.0 | 0.0 | 0.00 | 0.00 | 0.00 | 41 | 1016.7 |
| 20260506033055 | 16 | 360 | 0.0 | 0.0 | 0.00 | 0.00 | 0.00 | 40 | 1016.4 |
| 20260506031553 | 16 | 360 | 0.0 | 0.0 | 0.00 | 0.00 | 0.00 | 39 | 1016.2 |
| 20260506030051 | 17 | 360 | 0.0 | 0.0 | 0.00 | 0.00 | 0.00 | 37 | 1015.7 |
| 20260506024551 | 17 | 360 | 0.0 | 0.0 | 0.00 | 0.00 | 0.00 | 33 | 1015.6 |
| 20260506023056 | 18 | 360 | 0.0 | 0.0 | 0.00 | 0.00 | 0.00 | 31 | 1015.4 |
| 20260506021551 | 20 | 360 | 0.0 | 0.0 | 0.00 | 0.00 | 0.00 | 27 | 1015.2 |
| 20260506020116 | 21 | 360 | 0.0 | 0.0 | 0.00 | 0.00 | 0.00 | 26 | 1015.1 |
| 20260506014550 | 21 | 360 | 0.0 | 0.0 | 0.00 | 0.00 | 0.00 | 26 | 1014.9 |
| 20260506013048 | 22 | 360 | 0.0 | 0.0 | 0.00 | 0.00 | 0.00 | 23 | 1014.7 |
| 20260506011550 | 22 | 360 | 0.0 | 0.0 | 0.00 | 0.00 | 0.00 | 22 | 1014.7 |
| 20260506010046 | 22 | 360 | 0.0 | 0.0 | 0.00 | 0.00 | 0.00 | 23 | 1014.8 |
| 20260506004546 | 21 | 360 | 0.0 | 1.6 | 0.00 | 0.00 | 0.00 | 24 | 1014.7 |
| 20260506003047 | 22 | 360 | 0.0 | 1.6 | 0.00 | 0.00 | 0.00 | 23 | 1014.5 |
| 20260506001551 | 22 | 360 | 0.0 | 1.6 | 0.00 | 0.00 | 0.00 | 23 | 1014.5 |
| 20260506000056 | 21 | 360 | 0.0 | 3.2 | 0.00 | 0.00 | 0.00 | 24 | 1014.6 |
| 20260505234544 | 21 | 360 | 0.0 | 0.0 | 0.00 | 0.00 | 0.00 | 26 | 1014.5 |
| 20260505233048 | 21 | 360 | 0.0 | 6.4 | 0.00 | 0.00 | 0.00 | 26 | 1014.5 |